Carmi, IL

12:00 AM CDT on August 27, 2016 (GMT -0500)
Carmi Municipal

Weather History for KCUL - January, 2013

Change the Weather History Date:

Thursday, January 31, 2013

  Actual Average (KEVV) Record (KEVV)
Temperature  
Mean Temperature 29 °F 33 °F  
Max Temperature 38 °F 42 °F 68 °F (1989)
Min Temperature 19 °F 24 °F -14 °F (1965)
Degree Days  
Heating Degree Days 36 32  
Month to date heating degree days 1010  
Since 1 July heating degree days 2779  
Cooling Degree Days 0 0  
Month to date cooling degree days 0  
Year to date cooling degree days 0  
Moisture  
Dew Point 22 °F    
Average Humidity 69    
Maximum Humidity 95    
Minimum Humidity 58    
Precipitation  
Precipitation 0.00 in 0.11 in 2.08 in (1915)
Month to date precipitation 3.10  
Year to date precipitation 3.10  
Snow  
Snow 0.00 in 0.10 in 3.70 in (1951)
Month to date snowfall 3.4  
Since 1 July snowfall 6.9  
Snow Depth -    
Sea Level Pressure  
Sea Level Pressure 30.04 in    
Wind  
Wind Speed 17 mph (West)    
Max Wind Speed 29 mph    
Max Gust Speed 37 mph    
Visibility 10 miles    
Events Snow    
T = Trace of Precipitation, MM = Missing Value Source: NWS Daily Summary

Daily Weather History Graph

Daily Weather History Graph

Search for Another Location

Airport or City:

Trip Planner

Search our weather history database for the weather conditions in past years. The results will help you decide how hot, cold, wet, or windy it might be!

Date:

Astronomy

Jan. 31, 2013 Rise Set
Actual Time 6:57 AM CST 5:14 PM CST
Civil Twilight 6:29 AM CST 5:42 PM CST
Nautical Twilight 5:58 AM CST 6:14 PM CST
Astronomical Twilight 5:27 AM CST 6:45 PM CST
Moon 10:10 PM CST (1/31) 9:02 AM CST (1/31)
Length of Visible Light 11h 12m
Length of Day
10h 16m
Waning Gibbous, 79% of the Moon is Illuminated
Jan 31
Waning Gibbous
Feb 3
Last Quarter
Feb 10
New
Feb 17
First Quarter
Feb 25
Full

Hourly Weather History & Observations

Time (CST) Temp. Windchill Dew Point Humidity Pressure Visibility Wind Dir Wind Speed Gust Speed Precip Events Conditions
12:15 AM 32.0 °F 20.1 °F 22.6 °F 68% 29.89 in 10.0 mi West 19.6 mph 27.6 mph N/A   Overcast
12:35 AM 32.0 °F 21.2 °F 22.6 °F 68% 29.90 in 10.0 mi West 16.1 mph 29.9 mph N/A   Overcast
12:55 AM 32.0 °F 20.5 °F 23.0 °F 69% 29.91 in 10.0 mi West 18.4 mph 26.5 mph N/A   Overcast
1:15 AM 32.0 °F 20.1 °F 22.5 °F 68% 29.91 in 10.0 mi West 19.6 mph 26.5 mph N/A   Overcast
1:35 AM 32.0 °F 20.1 °F 21.9 °F 66% 29.92 in 10.0 mi West 19.6 mph 26.5 mph N/A   Overcast
1:55 AM 32.0 °F 20.5 °F 22.5 °F 68% 29.93 in 10.0 mi West 18.4 mph 25.3 mph N/A   Overcast
2:15 AM 32.0 °F 20.8 °F 22.1 °F 67% 29.92 in 10.0 mi West 17.3 mph 27.6 mph N/A   Overcast
2:35 AM 32.0 °F 19.5 °F 21.9 °F 66% 29.92 in 10.0 mi West 21.9 mph 28.8 mph N/A   Overcast
2:55 AM 31.8 °F 20.6 °F 21.4 °F 65% 29.92 in - West 17.3 mph 25.3 mph N/A   Overcast
3:15 AM 31.6 °F 19.7 °F 21.9 °F 67% 29.93 in - West 19.6 mph 23.0 mph N/A   Overcast
3:35 AM 31.5 °F 20.9 °F 22.3 °F 69% 29.93 in 10.0 mi West 15.0 mph 23.0 mph N/A   Overcast
3:55 AM 31.1 °F 18.9 °F 22.6 °F 71% 29.94 in 10.0 mi West 19.6 mph 23.0 mph N/A   Overcast
4:15 AM 31.1 °F 20.1 °F 22.1 °F 69% 29.94 in 10.0 mi West 16.1 mph - N/A   Overcast
4:35 AM 31.1 °F 19.3 °F 21.0 °F 66% 29.95 in 10.0 mi WNW 18.4 mph 28.8 mph N/A   Overcast
4:55 AM 30.9 °F 19.1 °F 20.8 °F 66% 29.96 in 10.0 mi West 18.4 mph 25.3 mph N/A   Overcast
5:15 AM 30.9 °F 19.8 °F 20.7 °F 66% 29.97 in 10.0 mi West 16.1 mph 25.3 mph N/A   Overcast
5:35 AM 30.9 °F 20.7 °F 20.8 °F 66% 29.96 in 10.0 mi West 13.8 mph 20.7 mph N/A   Overcast
5:55 AM 30.9 °F 21.2 °F 21.2 °F 67% 29.97 in 10.0 mi West 12.7 mph - N/A   Overcast
6:15 AM 30.9 °F 22.2 °F 21.7 °F 69% 29.97 in 10.0 mi West 10.4 mph - N/A   Overcast
6:35 AM 30.9 °F 21.7 °F 22.5 °F 71% 29.97 in 10.0 mi West 11.5 mph - N/A   Overcast
6:55 AM 30.9 °F 22.8 °F 22.5 °F 71% 29.98 in 10.0 mi WSW 9.2 mph - N/A   Overcast
7:15 AM 31.1 °F 21.4 °F 21.6 °F 68% 29.99 in 10.0 mi WSW 12.7 mph - N/A   Overcast
7:35 AM 31.3 °F 23.3 °F 21.9 °F 68% 30.00 in 10.0 mi West 9.2 mph 13.8 mph N/A   Overcast
7:55 AM 31.3 °F 21.1 °F 22.1 °F 69% 30.01 in 10.0 mi WSW 13.8 mph - N/A   Overcast
8:15 AM 31.5 °F 20.9 °F 21.6 °F 67% 30.02 in 10.0 mi West 15.0 mph 21.9 mph N/A   Scattered Clouds
8:35 AM 32.0 °F 23.0 °F 22.3 °F 67% 30.02 in 10.0 mi WSW 11.5 mph - N/A   Scattered Clouds
8:55 AM 32.0 °F 21.2 °F 21.7 °F 66% 30.03 in 10.0 mi WSW 16.1 mph - N/A   Overcast
9:15 AM 32.0 °F 22.1 °F 22.3 °F 67% 30.03 in 10.0 mi WSW 13.8 mph 18.4 mph N/A   Overcast
9:35 AM 32.2 °F 21.8 °F 22.6 °F 68% 30.04 in 10.0 mi WSW 15.0 mph 20.7 mph N/A   Overcast
9:55 AM 32.5 °F 23.7 °F 22.3 °F 66% 30.05 in 10.0 mi WSW 11.5 mph - N/A   Overcast
10:15 AM 32.9 °F 22.0 °F 22.8 °F 66% 30.05 in 10.0 mi WSW 17.3 mph 21.9 mph N/A   Overcast
10:35 AM 33.3 °F 22.5 °F 22.5 °F 65% 30.06 in 10.0 mi WSW 17.3 mph 23.0 mph N/A   Overcast
10:55 AM 33.4 °F 22.7 °F 22.8 °F 65% 30.06 in - WSW 17.3 mph - N/A   Overcast
11:15 AM 33.8 °F 22.8 °F 23.0 °F 65% 30.06 in 10.0 mi WSW 18.4 mph - N/A   Mostly Cloudy
11:35 AM 34.2 °F 23.6 °F 23.4 °F 65% 30.05 in 10.0 mi WSW 17.3 mph 21.9 mph N/A   Mostly Cloudy
11:55 AM 34.5 °F 25.3 °F 23.0 °F 63% 30.04 in 10.0 mi WSW 13.8 mph 19.6 mph N/A   Mostly Cloudy
12:15 PM 35.8 °F 26.1 °F 23.7 °F 62% 30.02 in - WSW 16.1 mph 21.9 mph N/A   Overcast
12:35 PM 36.0 °F 27.1 °F 24.1 °F 62% 30.02 in - West 13.8 mph 25.3 mph N/A   Overcast
12:55 PM 36.7 °F 26.9 °F 24.8 °F 62% 30.02 in 10.0 mi WSW 17.3 mph - N/A   Overcast
1:15 PM 38.3 °F 29.0 °F 25.5 °F 60% 30.02 in 10.0 mi WSW 17.3 mph 23.0 mph N/A   Mostly Cloudy
1:35 PM 36.9 °F 26.5 °F 24.3 °F 60% 30.01 in - WSW 19.6 mph 24.2 mph N/A   Overcast
1:55 PM 37.6 °F 28.8 °F 25.5 °F 62% 30.00 in - West 15.0 mph 20.7 mph N/A   Overcast
2:15 PM 37.6 °F 27.4 °F 24.3 °F 59% 30.00 in - West 19.6 mph 27.6 mph N/A   Overcast
2:35 PM 37.9 °F 27.3 °F 24.3 °F 58% 30.00 in - West 21.9 mph 26.5 mph N/A   Mostly Cloudy
2:55 PM 37.4 °F 28.2 °F 25.2 °F 61% 30.00 in - SW 16.1 mph 20.7 mph N/A   Overcast
3:15 PM 37.2 °F 29.1 °F 25.5 °F 63% 30.00 in - West 12.7 mph - N/A   Overcast
3:35 PM 37.6 °F 27.7 °F 25.9 °F 63% 30.00 in - West 18.4 mph 23.0 mph N/A   Overcast
3:55 PM 36.9 °F 28.7 °F 26.8 °F 67% 30.00 in - WSW 12.7 mph - N/A   Overcast
4:15 PM 37.0 °F 27.4 °F 27.9 °F 69% 30.01 in - West 17.3 mph 20.7 mph N/A   Overcast
4:35 PM 36.3 °F 25.8 °F 28.9 °F 75% 30.02 in - WSW 19.6 mph 27.6 mph N/A   Overcast
4:55 PM 34.5 °F 26.2 °F 31.8 °F 90% 30.02 in - WSW 11.5 mph 19.6 mph N/A   Unknown
5:15 PM 33.8 °F 25.8 °F 32.5 °F 95% 30.03 in - West 10.4 mph - N/A   Overcast
5:35 PM 33.4 °F 23.9 °F 32.2 °F 95% 30.03 in - West 13.8 mph 18.4 mph N/A   Overcast
5:55 PM 33.8 °F 23.9 °F 32.0 °F 93% 30.04 in - West 15.0 mph - N/A   Unknown
6:15 PM 29.3 °F 14.2 °F 26.6 °F 90% 30.07 in - WNW 28.8 mph 36.8 mph N/A   Unknown
6:35 PM 29.3 °F 15.3 °F 25.5 °F 86% 30.08 in - WNW 24.2 mph 32.2 mph N/A   Unknown
6:55 PM 26.6 °F 11.1 °F 22.3 °F 84% 30.11 in - NW 26.5 mph 34.5 mph N/A   Unknown
7:15 PM 25.5 °F 11.6 °F 21.0 °F 83% 30.13 in 7.0 mi NW 19.6 mph 24.2 mph N/A Snow Light Snow
7:35 PM 25.3 °F 10.7 °F 19.6 °F 79% 30.15 in 10.0 mi NW 21.9 mph 28.8 mph N/A Snow Light Snow
7:55 PM 25.2 °F 11.6 °F 17.2 °F 72% 30.16 in 10.0 mi NW 18.4 mph 27.6 mph N/A   Overcast
8:15 PM 24.4 °F 8.2 °F 15.3 °F 68% 30.17 in 10.0 mi WNW 26.5 mph 29.9 mph N/A   Scattered Clouds
8:35 PM 23.4 °F 8.8 °F 13.3 °F 65% 30.19 in 10.0 mi WNW 19.6 mph 27.6 mph N/A   Scattered Clouds
8:55 PM 22.8 °F 8.1 °F 12.4 °F 64% 30.20 in 10.0 mi WNW 19.6 mph 29.9 mph N/A   Scattered Clouds
9:15 PM 22.6 °F 9.2 °F 12.7 °F 66% 30.22 in 10.0 mi WNW 16.1 mph 27.6 mph N/A   Scattered Clouds
9:35 PM 21.9 °F 6.9 °F 13.1 °F 69% 30.23 in 10.0 mi NW 19.6 mph - N/A   Overcast
9:55 PM 21.4 °F 6.6 °F 11.8 °F 67% 30.24 in 10.0 mi NW 18.4 mph 27.6 mph N/A   Overcast
10:15 PM 21.2 °F 7.8 °F 11.8 °F 67% 30.25 in 10.0 mi NW 15.0 mph 28.8 mph N/A   Overcast
10:35 PM 20.7 °F 5.7 °F 11.5 °F 68% 30.26 in 10.0 mi NNW 18.4 mph 24.2 mph N/A   Overcast
10:55 PM 20.3 °F 6.1 °F 12.7 °F 73% 30.28 in 7.0 mi NW 16.1 mph 24.2 mph N/A Snow Light Snow
11:15 PM 20.8 °F 5.5 °F 13.1 °F 72% 30.28 in 10.0 mi WNW 19.6 mph - N/A   Overcast
11:35 PM 20.7 °F 4.5 °F 13.5 °F 74% 30.30 in 10.0 mi WNW 21.9 mph 29.9 mph N/A Snow Light Snow
11:55 PM 19.9 °F 2.2 °F 12.7 °F 74% 30.31 in 5.0 mi WNW 26.5 mph 32.2 mph N/A Snow Light Snow